Change the Weather History Date:

Sunday, December 23, 2012

  Actual Average Record
Temperature  
Mean Temperature 9 °F -  
Max Temperature 17 °F 21 °F 44 °F (2005)
Min Temperature 1 °F 6 °F -18 °F (2013)
Degree Days  
Heating Degree Days 56    
Moisture  
Dew Point 5 °F    
Average Humidity 78    
Maximum Humidity 92    
Minimum Humidity 63    
Precipitation  
Precipitation 0.00 in - - ()
Sea Level Pressure  
Sea Level Pressure 30.09 in    
Wind  
Wind Speed 5 mph (North)    
Max Wind Speed 9 mph    
Max Gust Speed -    
Visibility 10 miles    
Events      
Averages and records for this station are not official NWS values.
T = Trace of Precipitation, MM = Missing Value Source: NWS Daily Summary

Daily Weather History Graph

Daily Weather History Graph

Search for Another Location

Airport or City:

Trip Planner

Search our weather history database for the weather conditions in past years. The results will help you decide how hot, cold, wet, or windy it might be!

Date:

Astronomy

Dec. 23, 2012 Rise Set
Actual Time 7:52 AM CST 4:34 PM CST
Civil Twilight 7:18 AM CST 5:09 PM CST
Nautical Twilight 6:40 AM CST 5:46 PM CST
Astronomical Twilight 6:04 AM CST 6:23 PM CST
Moon 1:31 PM CST (12/23) 3:29 AM CST (12/23)
Length of Visible Light 9h 50m
Length of Day
8h 42m
Waxing Gibbous, 82% of the Moon is Illuminated
Dec 23
Waxing Gibbous
Dec 28
Full
Jan 4
Last Quarter
Jan 11
New
Jan 18
First Quarter

Hourly Weather History & Observations

Time (CST) Temp. Windchill Dew Point Humidity Pressure Visibility Wind Dir Wind Speed Gust Speed Precip Events Conditions
12:12 AM 12.2 °F 0.7 °F 6.8 °F 79% 30.05 in 10.0 mi NNW 8.1 mph - N/A   Overcast
12:31 AM 12.2 °F 0.7 °F 6.8 °F 79% 30.06 in 10.0 mi North 8.1 mph - N/A   Overcast
12:51 AM 10.4 °F -0.4 °F 6.8 °F 85% 30.07 in 10.0 mi NNW 6.9 mph - N/A   Mostly Cloudy
1:12 AM 10.4 °F 4.0 °F 5.0 °F 79% 30.08 in 10.0 mi NNW 3.5 mph - N/A   Clear
1:31 AM 8.6 °F -2.6 °F 5.0 °F 85% 30.09 in 10.0 mi North 6.9 mph - N/A   Clear
1:51 AM 8.6 °F 0.1 °F 5.0 °F 85% 30.09 in 10.0 mi North 4.6 mph - N/A   Clear
2:12 AM 8.6 °F 2.0 °F 5.0 °F 85% 30.09 in 10.0 mi North 3.5 mph - N/A   Clear
2:31 AM 6.8 °F -2.0 °F 3.2 °F 85% 30.08 in 10.0 mi North 4.6 mph - N/A   Clear
2:51 AM 6.8 °F - 3.2 °F 85% 30.09 in 10.0 mi Calm Calm - N/A   Clear
3:12 AM 5.0 °F - 1.4 °F 85% 30.10 in 10.0 mi Calm Calm - N/A   Clear
3:51 AM 3.2 °F -6.2 °F 1.4 °F 92% 30.10 in 10.0 mi North 4.6 mph - N/A   Clear
4:12 AM 6.8 °F -3.5 °F 3.2 °F 85% 30.09 in 10.0 mi North 5.8 mph - N/A   Clear
4:31 AM 6.8 °F -2.0 °F 3.2 °F 85% 30.11 in 10.0 mi North 4.6 mph - N/A   Clear
4:51 AM 6.8 °F -0.1 °F 3.2 °F 85% 30.11 in 10.0 mi North 3.5 mph - N/A   Clear
5:11 AM 6.8 °F -3.5 °F 1.4 °F 79% 30.11 in 10.0 mi North 5.8 mph - N/A   Clear
5:30 AM 5.0 °F -2.1 °F 1.4 °F 85% 30.12 in 10.0 mi North 3.5 mph - N/A   Clear
5:51 AM 6.8 °F - 1.4 °F 79% 30.12 in 10.0 mi Calm Calm - N/A   Clear
6:10 AM 5.0 °F -2.1 °F 1.4 °F 85% 30.11 in 10.0 mi NNE 3.5 mph - N/A   Clear
6:31 AM 6.8 °F -2.0 °F 1.4 °F 79% 30.11 in 10.0 mi NNE 4.6 mph - N/A   Clear
6:51 AM 5.0 °F - 1.4 °F 85% 30.11 in 10.0 mi Calm Calm - N/A   Clear
7:11 AM 5.0 °F - 1.4 °F 85% 30.12 in 10.0 mi Calm Calm - N/A   Scattered Clouds
7:51 AM 1.4 °F - -2.2 °F 85% 30.13 in 10.0 mi Calm Calm - N/A   Scattered Clouds
8:11 AM 1.4 °F - -2.2 °F 85% 30.13 in 7.0 mi Calm Calm - N/A   Clear
8:31 AM 3.2 °F - -0.4 °F 85% 30.14 in 10.0 mi Calm Calm - N/A   Clear
8:51 AM 3.2 °F - 1.4 °F 92% 30.14 in 10.0 mi Calm Calm - N/A   Clear
9:11 AM 5.0 °F - 1.4 °F 85% 30.14 in 10.0 mi Calm Calm - N/A   Clear
9:31 AM 6.8 °F -0.1 °F 3.2 °F 85% 30.14 in 10.0 mi North 3.5 mph - N/A   Clear
9:51 AM 8.6 °F 0.1 °F 3.2 °F 79% 30.14 in 10.0 mi North 4.6 mph - N/A   Clear
10:11 AM 8.6 °F -1.3 °F 5.0 °F 85% 30.14 in 10.0 mi North 5.8 mph - N/A   Clear
10:52 AM 10.4 °F -1.5 °F 6.8 °F 85% 30.12 in 10.0 mi NNE 8.1 mph - N/A   Clear
11:11 AM 12.2 °F -0.2 °F 6.8 °F 79% 30.12 in 10.0 mi NNE 9.2 mph - N/A   Clear
11:31 AM 12.2 °F 1.7 °F 6.8 °F 79% 30.10 in 10.0 mi NNE 6.9 mph - N/A   Clear
11:51 AM 14.0 °F 3.9 °F 6.8 °F 73% 30.09 in 10.0 mi NNE 6.9 mph - N/A   Clear
12:12 PM 14.0 °F 2.9 °F 6.8 °F 73% 30.09 in 10.0 mi NNE 8.1 mph - N/A   Clear
12:31 PM 14.0 °F 5.1 °F 6.8 °F 73% 30.09 in 10.0 mi NNE 5.8 mph - N/A   Clear
12:51 PM 15.8 °F 7.2 °F 6.8 °F 68% 30.09 in 10.0 mi North 5.8 mph - N/A   Clear
1:12 PM 15.8 °F 6.1 °F 6.8 °F 68% 30.08 in 10.0 mi North 6.9 mph - N/A   Clear
1:51 PM 15.8 °F 7.2 °F 6.8 °F 68% 30.07 in 10.0 mi North 5.8 mph - N/A   Clear
2:11 PM 15.8 °F 7.2 °F 6.8 °F 68% 30.07 in 10.0 mi North 5.8 mph - N/A   Clear
2:31 PM 17.6 °F 8.2 °F 6.8 °F 63% 30.07 in 10.0 mi North 6.9 mph - N/A   Clear
2:51 PM 17.6 °F 6.4 °F 6.8 °F 63% 30.07 in 10.0 mi North 9.2 mph - N/A   Clear
3:11 PM 17.6 °F 6.4 °F 6.8 °F 63% 30.08 in 10.0 mi North 9.2 mph - N/A   Scattered Clouds
3:31 PM 15.8 °F 5.1 °F 6.8 °F 68% 30.08 in 10.0 mi NNE 8.1 mph - N/A   Scattered Clouds
3:51 PM 15.8 °F 6.1 °F 6.8 °F 68% 30.08 in 10.0 mi NNE 6.9 mph - N/A   Clear
4:11 PM 15.8 °F 8.6 °F 6.8 °F 68% 30.09 in 10.0 mi North 4.6 mph - N/A   Clear
4:51 PM 15.8 °F - 6.8 °F 68% 30.09 in 10.0 mi Calm Calm - N/A   Clear
5:11 PM 14.0 °F - 6.8 °F 73% 30.10 in 10.0 mi Calm Calm - N/A   Clear
5:32 PM 14.0 °F - 6.8 °F 73% 30.09 in 10.0 mi Calm Calm - N/A   Clear
5:51 PM 14.0 °F - 6.8 °F 73% 30.08 in 10.0 mi Calm Calm - N/A   Clear
6:11 PM 14.0 °F - 6.8 °F 73% 30.07 in 10.0 mi Calm Calm - N/A   Clear
6:32 PM 12.2 °F - 6.8 °F 79% 30.08 in 10.0 mi Calm Calm - N/A   Clear
6:51 PM 8.6 °F - 3.2 °F 79% 30.08 in 10.0 mi Calm Calm - N/A   Mostly Cloudy
7:11 PM 10.4 °F - 5.0 °F 79% 30.08 in 10.0 mi Calm Calm - N/A   Overcast
7:32 PM 10.4 °F - 6.8 °F 85% 30.06 in 10.0 mi Calm Calm - N/A   Overcast
7:51 PM 10.4 °F - 5.0 °F 79% 30.06 in 10.0 mi Calm Calm - N/A   Overcast
8:11 PM 8.6 °F - 5.0 °F 85% 30.05 in 10.0 mi Calm Calm - N/A   Mostly Cloudy
8:31 PM 12.2 °F - 6.8 °F 79% 30.05 in 10.0 mi Calm Calm - N/A   Scattered Clouds
8:51 PM 12.2 °F 4.3 °F 6.8 °F 79% 30.03 in 10.0 mi NE 4.6 mph - N/A   Scattered Clouds
9:12 PM 14.0 °F 8.2 °F 6.8 °F 73% 30.04 in 10.0 mi North 3.5 mph - N/A   Mostly Cloudy
9:31 PM 14.0 °F 5.1 °F 6.8 °F 73% 30.03 in 10.0 mi North 5.8 mph - N/A   Overcast
9:51 PM 14.0 °F 5.1 °F 6.8 °F 73% 30.04 in 10.0 mi North 5.8 mph - N/A   Overcast
10:12 PM 14.0 °F 5.1 °F 8.6 °F 79% 30.04 in 10.0 mi North 5.8 mph - N/A   Overcast
10:31 PM 14.0 °F 5.1 °F 6.8 °F 73% 30.03 in 10.0 mi North 5.8 mph - N/A   Mostly Cloudy
10:51 PM 14.0 °F 6.5 °F 8.6 °F 79% 30.05 in 10.0 mi NNW 4.6 mph - N/A   Overcast
11:12 PM 14.0 °F 5.1 °F 8.6 °F 79% 30.04 in 10.0 mi North 5.8 mph - N/A   Overcast
11:31 PM 14.0 °F 5.1 °F 8.6 °F 79% 30.03 in 10.0 mi North 5.8 mph - N/A   Overcast
11:51 PM 14.0 °F 6.5 °F 6.8 °F 73% 30.02 in 10.0 mi North 4.6 mph - N/A   Overcast